This is the latest recevied weather packets stored in our database for station/object 9W2CHF-4. If no packets are shown the sender has not sent any weather packets the latest 10 day(s).
| Time | Temp. | Humidity | Pressure | Rain* | Wind** | Luminosity | Snow |
|---|---|---|---|---|---|---|---|
| 1777613009 | 34.44° C | 75% | 1010.2 hPa | - | - | - | - |
| 1777612109 | 34.44° C | 74% | 1010.4 hPa | - | - | - | - |
| 1777611209 | 35° C | 71% | 1010.6 hPa | - | - | - | - |
| 1777610309 | 34.44° C | 75% | 1011.1 hPa | - | - | - | - |
| 1777609409 | 33.89° C | 79% | 1011.2 hPa | - | - | - | - |
| 1777608508 | 33.89° C | 79% | 1011.3 hPa | - | - | - | - |
| 1777607608 | 33.89° C | 80% | 1011.3 hPa | - | - | - | - |
| 1777606708 | 33.89° C | 81% | 1011.8 hPa | - | - | - | - |
| 1777605808 | 33.33° C | 83% | 1012.1 hPa | - | - | - | - |
| 1777604908 | 33.33° C | 84% | 1011.8 hPa | - | - | - | - |
| 1777604007 | 33.33° C | 82% | 1011.8 hPa | - | - | - | - |
| 1777603107 | 33.33° C | 81% | 1011.6 hPa | - | - | - | - |
| 1777602207 | 33.33° C | 82% | 1011.7 hPa | - | - | - | - |
| 1777601307 | 33.33° C | 82% | 1011.7 hPa | - | - | - | - |
| 1777600408 | 33.33° C | 83% | 1011.5 hPa | - | - | - | - |
| 1777599507 | 33.33° C | 82% | 1011.6 hPa | - | - | - | - |
| 1777598607 | 32.78° C | 84% | 1011.4 hPa | - | - | - | - |
| 1777597707 | 33.33° C | 83% | 1011.3 hPa | - | - | - | - |
| 1777596807 | 32.78° C | 81% | 1011 hPa | - | - | - | - |
| 1777595907 | 33.33° C | 80% | 1010.9 hPa | - | - | - | - |
| 1777595006 | 32.78° C | 80% | 1010.8 hPa | - | - | - | - |
| 1777594105 | 33.33° C | 77% | 1010.5 hPa | - | - | - | - |
| 1777593205 | 33.33° C | 75% | 1010.3 hPa | - | - | - | - |
| 1777592305 | 32.78° C | 74% | 1010.4 hPa | - | - | - | - |
| 1777591405 | 32.78° C | 66% | 1010.3 hPa | - | - | - | - |
* Rain since midnight (hover to see other rain measurements)
** Current wind speed in m/s (hover to see current wind gust speed)